Regional Weather Roundup
Issued by NWS Burlington, VT

Home | Current Version | Previous Version | Text Only | Print | Product List | Glossary On
Versions: 1 2 3 4 5 6 7 8 9 10 11 12 13 14 15 16 17 18 19 20 21 22 23 24 25 26 27 28 29 30 31 32 33 34 35 36 37 38 39 40 41 42 43 44 45 46 47 48 49 50
000
ASUS41 KBTV 260230
RWRBTV
VERMONT REGIONAL WEATHER ROUNDUP
NATIONAL WEATHER SERVICE BURLINGTON VT
1000 PM EDT TUE APR 25 2017

NOTE: "FAIR" INDICATES FEW OR NO CLOUDS BELOW 12,000 FEET WITH NO
SIGNIFICANT WEATHER AND/OR OBSTRUCTIONS TO VISIBILITY.

* THESE REPORTS ARE NOT UNDER NWS QUALITY CONTROL AND/OR DO NOT
  REPORT WEATHER SUCH AS PRECIPITATION AND FOG.

VTZ001>019-260300-
_____VERMONT_____


CITY           SKY/WX    TMP DP  RH WIND       PRES   REMARKS
BURLINGTON     CLOUDY    52  47  83 S5        30.10S
MONTPELIER     LGT RAIN  47  45  93 S3        30.18F
MORRISVILLE    CLOUDY    48  44  86 CALM      30.15F
ST. JOHNSBURY*   N/A     48  47  96 MISG      30.14F
LYNDONVILLE*   CLOUDY    48  42  81 CALM      30.16F
MIDDLEBURY*    RAIN      51  44  78 SW10G21   30.08F
RUTLAND*       LGT RAIN  49  45  86 SE10      30.08F
SPRINGFIELD    RAIN      46  43  89 NE6       30.14F
HIGHGATE*      DRIZZLE   49  48  97 CALM      30.09S
NEWPORT*       DRIZZLE   46  43  89 S6        30.15S
BENNINGTON     LGT RAIN  52  44  74 E8G22     30.03S
SUTTON*          N/A     46 N/A N/A MISG        N/A
ISLAND POND*     N/A     45 N/A N/A SE8         N/A
GALLUP MILLS*    N/A     43 N/A N/A MISG        N/A
UNION VILLAGE*   N/A     48 N/A N/A MISG        N/A
MT. MANSFIELD*   N/A     37 N/A N/A E33G46      N/A  WCI  24

_____LAKE CHAMPLAIN_____


CITY           SKY/WX    TMP DP  RH WIND       PRES   REMARKS
BURTON ISLAND*   N/A     48  45  87 SW7         N/A
COLCHESTER RF*   N/A     50  46  87 S13         N/A
DIAMOND ISL*     N/A     48  46  93 S5          N/A

$$

NYZ007-026>031-035-052-083-087-260300-
_____NORTHERN NEW YORK_____


CITY           SKY/WX    TMP DP  RH WIND       PRES   REMARKS
PLATTSBURGH    LGT RAIN  48  45  89 S5        30.09F
SARANAC LAKE   LGT RAIN  51  49  92 E3        30.03S
MASSENA        LGT RAIN  48  48 100 NE7       30.02F
OGDENSBURG*    FAIR      51  50  95 E6        29.98F
POTSDAM*       CLOUDY    50  50 100 NE6       29.99F
STARK FALLS*     N/A     50 N/A N/A SE15        N/A
WATERTOWN      CLOUDY    55  50  83 E3        29.95S
FT DRUM        DRIZZLE   54  48  82 SE20G25   29.94F
ALBANY         LGT RAIN  51  47  86 NE5       30.04F FOG
GLENS FALLS    LGT RAIN  50  46  86 NE8       30.06F

$$
NHZ002-005-011-260300-
_____NEW HAMPSHIRE_____


CITY           SKY/WX    TMP DP  RH WIND       PRES   REMARKS
LEBANON        LGT RAIN  49  44  83 E5        30.14F
KEENE          LGT RAIN  46  43  89 VRB7G18   30.11F
MT WASHINGTON  SHOWER    34  34 100 SE54        N/A  VSB 0   WCI  16
PLYMOUTH       LGT RAIN  45  43  94 CALM      30.17F
WHITEFIELD     CLOUDY    50  41  71 CALM      30.17S

$$

_____REGIONAL QUEBEC LOCATIONS_____


CITY           SKY/WX    TMP DP  RH WIND       PRES   REMARKS
MONTREAL       LGT RAIN  50  46  87 E9        30.07F
QUEBEC CITY    LGT RAIN  39  37  93 NE9       30.21F
SHERBROOKE     LGT RAIN  45  43  93 SE13      30.15S

_____REGIONAL ONTARIO LOCATIONS_____


CITY           SKY/WX    TMP DP  RH WIND       PRES   REMARKS
OTTAWA         CLOUDY    48  48 100 E10G18    30.01S

______KEY______
VSB  - VISIBILITY IN MILES
WCI  - WIND CHILL INDEX
HX   - HEAT INDEX
$$
NNNN




USA.gov is the U.S. government's official web portal to all federal, state and local government web resources and services.